Location: Unspecified
(0.0000°N, 0.0000°E)
Time: 01:24:41
(UTC+02:00)

Ariane H10+ - Visible Passes

Search period start: 20 April 2018 00:00
Search period end: 30 April 2018 00:00
Orbit: 296 x 31244 km, 7.0° (Epoch: 19 April)

Date Brightness Start Highest point End Pass type
(mag) Time Alt. Az. Time Alt. Az. Time Alt. Az.
20 Apr 5.8 07:06:54 16° WSW 07:14:02 70° S 15:21:08 10° E visible
22 Apr 6.2 04:40:38 27° ESE 04:40:38 27° ESE 04:48:07 10° E visible
22 Apr 5.3 14:30:41 10° W 16:09:15 33° W 22:31:20 60° NNE visible
25 Apr 4.8 05:34:22 63° SSE 05:34:22 63° SSE 13:18:00 10° E visible
25 Apr 10.8 15:57:05 10° W 17:04:37 17° W 19:00:20 10° W visible
25 Apr 6.0 23:06:12 10° W 23:25:05 42° WNW 23:25:05 42° WNW visible
27 Apr 6.4 12:38:20 10° W 20:48:04 72° N 20:58:31 13° ENE visible
28 Apr 5.3 06:27:51 33° WSW 06:32:08 67° S 14:35:29 10° E visible
29 Apr 7.1 00:16:13 10° WNW 00:18:32 14° WNW 00:18:32 14° WNW visible
